Flight Track Log - Related Links

Times and Time Zones

All times are in EDT time to prevent confusion due to time zone crossing. See the SNC1015 flight status page for this flight to view local times or setup timezone preferences in your user account.

Time Position Orientation Groundspeed Altitude Reporting Facility
EDT Latitude Longitude Course Direction KTS MPH feet Rate Location/Type
Fri 10:21:18 PM 40.1403 -76.8506 237° Southwest 123 142 4,300  Level New York Center
Fri 10:22:16 PM 40.1319 -76.8906 255° West 128 147 5,200 900 Climbing New York Center
Fri 10:23:18 PM 40.1256 -76.9333 259° West 128 147 6,100 900 Climbing New York Center
Fri 10:24:00 PM 40.3000 -77.0594 270° West  Level FlightAware Approximate
Fri 10:24:16 PM 40.1169 -76.9789 256° West 128 147 7,000  Level New York Center
Fri 10:25:00 PM 40.2737 -77.1027 237° Southwest  Level FlightAware Approximate
Fri 10:25:16 PM 40.1103 -77.0244 259° West 128 147 7,700  Level New York Center
Fri 10:26:16 PM 40.1017 -77.0725 257° West 133 153 8,500 800 Climbing New York Center
Fri 10:27:16 PM 40.0931 -77.1153 255° West 133 153 9,300 750 Climbing New York Center
Fri 10:28:16 PM 40.0842 -77.1606 256° West 133 153 10,000 350 Climbing New York Center
Fri 10:29:16 PM 40.0753 -77.2111 257° West 138 159 10,000 50 Level New York Center
Fri 10:30:16 PM 40.0658 -77.2700 258° West 157 181 10,100  Climbing New York Center
Fri 10:31:18 PM 40.0542 -77.3286 255° West 170 196 10,000 -50 Descending New York Center
Fri 10:32:16 PM 40.0422 -77.3928 256° West 176 203 10,000  Level New York Center
Fri 10:33:17 PM 40.0328 -77.4514 258° West 182 209 10,000 -42 Level New York Center
Fri 10:34:40 PM 40.0203 -77.5367 259° West 170 196 9,900 -42 Descending Cleveland Center
Fri 10:35:41 PM 40.0103 -77.5964 258° West 170 196 9,900  Level Cleveland Center
Fri 10:36:42 PM 40.0003 -77.6528 257° West 165 190 9,900  Level Cleveland Center
Fri 10:37:44 PM 39.9858 -77.7094 252° West 164 189 9,900 49 Level Cleveland Center
Fri 10:38:45 PM 39.9717 -77.7675 252° West 165 190 10,000 49 Climbing Cleveland Center
Fri 10:39:46 PM 39.9581 -77.8281 254° West 169 194 10,000 49 Level Cleveland Center
Fri 10:40:47 PM 39.9436 -77.8864 252° West 169 194 10,100  Climbing Cleveland Center
Fri 10:41:49 PM 39.9272 -77.9594 254° West 172 198 10,000  Descending Cleveland Center
Fri 10:42:50 PM 39.9181 -78.0167 258° West 169 194 10,100 49 Climbing Cleveland Center
Fri 10:43:51 PM 39.9075 -78.0767 257° West 169 194 10,100  Level Cleveland Center
Fri 10:44:52 PM 39.8969 -78.1372 257° West 169 194 10,100 -49 Level Cleveland Center
Fri 10:45:53 PM 39.8858 -78.1975 257° West 169 194 10,000  Descending Cleveland Center
Fri 10:46:54 PM 39.8747 -78.2564 256° West 169 194 10,100 49 Climbing Cleveland Center
Fri 10:47:56 PM 39.8633 -78.3197 257° West 169 194 10,100  Level Cleveland Center
Fri 10:48:57 PM 39.8519 -78.3822 257° West 172 198 10,100  Level Cleveland Center
Fri 10:49:58 PM 39.8403 -78.4453 256° West 175 201 10,100  Level Cleveland Center
Fri 10:50:59 PM 39.8300 -78.5075 258° West 176 203 10,100 -49 Level Cleveland Center
Fri 10:52:00 PM 39.8167 -78.5692 254° West 177 204 10,000 -49 Descending Cleveland Center
Fri 10:53:01 PM 39.8056 -78.6283 256° West 172 198 10,000 49 Level Cleveland Center
Fri 10:54:02 PM 39.7922 -78.6889 254° West 172 198 10,100 49 Climbing Cleveland Center
Fri 10:55:03 PM 39.7772 -78.7606 255° West 174 200 10,100  Level Cleveland Center
Fri 10:56:04 PM 39.7653 -78.8222 256° West 176 203 10,100 -49 Level Cleveland Center
Fri 10:57:05 PM 39.7519 -78.8842 254° West 177 204 10,000 -49 Descending Cleveland Center
Fri 10:58:06 PM 39.7397 -78.9428 255° West 173 199 10,000 98 Level Cleveland Center
Fri 10:59:08 PM 39.7269 -79.0086 256° West 173 199 10,200 98 Climbing Cleveland Center
Fri 11:00:08 PM 39.7125 -79.0708 253° West 175 201 10,200  Level Cleveland Center
Fri 11:01:10 PM 39.7025 -79.1281 257° West 166 191 10,200 -49 Level Cleveland Center
Fri 11:02:11 PM 39.6919 -79.1867 257° West 166 191 10,100  Descending Cleveland Center
Fri 11:03:12 PM 39.6814 -79.2447 257° West 167 192 10,200 -49 Climbing Cleveland Center
Fri 11:04:13 PM 39.6711 -79.3003 257° West 165 190 10,000 -98 Descending Cleveland Center
Fri 11:05:14 PM 39.6603 -79.3581 256° West 165 190 10,000 49 Level Cleveland Center
Fri 11:06:15 PM 39.6492 -79.4156 256° West 165 190 10,100  Climbing Cleveland Center
Fri 11:07:16 PM 39.6381 -79.4739 256° West 165 190 10,000 -49 Descending Cleveland Center
Fri 11:08:17 PM 39.6269 -79.5300 256° West 165 190 10,000  Level Cleveland Center
Fri 11:09:18 PM 39.6169 -79.5883 257° West 164 189 10,000  Level Cleveland Center
Fri 11:10:19 PM 39.6039 -79.6478 254° West 170 196 10,000  Level Cleveland Center
Fri 11:11:20 PM 39.5897 -79.7136 254° West 162 186 10,000  Level Cleveland Center
Fri 11:12:20 PM 39.5769 -79.7703 254° West 162 186 10,000  Level Cleveland Center
Fri 11:13:21 PM 39.5667 -79.8300 257° West 164 189 10,000  Level Cleveland Center
Fri 11:14:22 PM 39.5558 -79.8892 257° West 167 192 10,000  Level Cleveland Center
Fri 11:15:23 PM 39.5544 -79.9425 268° West 156 180 10,000  Level Cleveland Center
Fri 11:16:24 PM 39.5503 -80.0006 265° West 156 180 10,000 49 Level Cleveland Center
Fri 11:17:25 PM 39.5461 -80.0583 265° West 158 182 10,100 49 Climbing Cleveland Center
Fri 11:18:26 PM 39.5428 -80.1161 266° West 160 184 10,100  Level Cleveland Center
Fri 11:19:27 PM 39.5372 -80.1750 263° West 161 185 10,100 -49 Level Cleveland Center
Fri 11:20:28 PM 39.5342 -80.2331 266° West 161 185 10,000  Descending Cleveland Center
Fri 11:21:29 PM 39.5306 -80.2914 265° West 161 185 10,100 49 Climbing Cleveland Center
Fri 11:22:30 PM 39.5283 -80.3472 267° West 160 184 10,100 -49 Level Cleveland Center
Fri 11:23:31 PM 39.5236 -80.4042 264° West 157 181 10,000 -49 Descending Cleveland Center
Fri 11:24:32 PM 39.5183 -80.4622 263° West 157 181 10,000  Level Cleveland Center
Fri 11:25:33 PM 39.5158 -80.5300 267° West 158 182 10,000  Level Cleveland Center
Fri 11:26:34 PM 39.5083 -80.5858 260° West 158 182 10,000  Level Cleveland Center
Fri 11:27:35 PM 39.5050 -80.6428 266° West 157 181 10,000  Level Cleveland Center
Fri 11:28:36 PM 39.4994 -80.6997 263° West 158 182 10,000  Level Cleveland Center
Fri 11:29:36 PM 39.4953 -80.7578 265° West 160 184 10,000  Level Cleveland Center
Fri 11:30:37 PM 39.4900 -80.8142 263° West 160 184 10,000  Level Cleveland Center
Fri 11:31:38 PM 39.4856 -80.8728 264° West 161 185 10,000  Level Cleveland Center
Fri 11:32:19 PM 39.4814 -80.9097 262° West 159 183 10,000  Level Indianapolis Center
Fri 11:33:20 PM 39.4769 -80.9675 264° West 159 183 10,000  Level Indianapolis Center
Fri 11:34:20 PM 39.4694 -81.0267 261° West 161 185 10,000  Level Indianapolis Center
Fri 11:35:21 PM 39.4622 -81.0856 261° West 163 188 10,000 49 Level Indianapolis Center
Fri 11:36:22 PM 39.4594 -81.1433 266° West 163 188 10,100 -49 Climbing Indianapolis Center
Fri 11:37:23 PM 39.4531 -81.2050 262° West 167 192 9,900 -49 Descending Indianapolis Center
Fri 11:38:24 PM 39.4408 -81.2764 258° West 171 197 10,000 50 Climbing Indianapolis Center
Fri 11:39:24 PM 39.4369 -81.3361 265° West 171 197 10,000 -50 Level Indianapolis Center
Fri 11:40:25 PM 39.4308 -81.3975 263° West 171 197 9,900 -49 Descending Indianapolis Center
Fri 11:41:26 PM 39.4256 -81.4569 263° West 170 196 9,900 50 Level Indianapolis Center
Fri 11:42:26 PM 39.4194 -81.5181 263° West 170 196 10,000 50 Climbing Indianapolis Center
Fri 11:43:27 PM 39.4150 -81.5783 265° West 170 196 10,000  Level Indianapolis Center
Fri 11:44:28 PM 39.4106 -81.6394 265° West 170 196 10,000  Level Indianapolis Center
Fri 11:45:29 PM 39.4072 -81.7000 266° West 170 196 10,000  Level Indianapolis Center
Fri 11:46:30 PM 39.3978 -81.7600 259° West 170 196 10,000 -50 Level Indianapolis Center
Fri 11:47:30 PM 39.3897 -81.8208 260° West 170 196 9,900  Descending Indianapolis Center
Fri 11:48:31 PM 39.3803 -81.8828 259° West 171 197 10,000  Climbing Indianapolis Center
Fri 11:49:32 PM 39.3733 -81.9406 261° West 170 196 9,900  Descending Indianapolis Center
Fri 11:50:32 PM 39.3683 -81.9994 264° West 168 193 10,000  Climbing Indianapolis Center
Fri 11:51:33 PM 39.3639 -82.0583 264° West 168 193 9,900  Descending Indianapolis Center
Fri 11:52:34 PM 39.3589 -82.1169 264° West 167 192 10,000  Climbing Indianapolis Center
Fri 11:53:34 PM 39.3544 -82.1753 264° West 167 192 9,900 -50 Descending Indianapolis Center
Fri 11:54:35 PM 39.3481 -82.2350 262° West 167 192 9,900  Level Indianapolis Center
Fri 11:55:36 PM 39.3408 -82.2942 261° West 166 191 9,900  Level Indianapolis Center
Fri 11:56:36 PM 39.3356 -82.3647 264° West 166 191 9,900 50 Level Indianapolis Center
Fri 11:57:37 PM 39.3244 -82.4233 256° West 166 191 10,000 49 Climbing Indianapolis Center
Fri 11:58:38 PM 39.3164 -82.4828 260° West 167 192 10,000  Level Indianapolis Center
Fri 11:59:39 PM 39.3108 -82.5369 262° West 167 192 10,000  Level Indianapolis Center
Sat 12:00:39 AM 39.3025 -82.5975 260° West 168 193 10,000  Level Indianapolis Center
Sat 12:01:40 AM 39.2978 -82.6572 264° West 168 193 10,000  Level Indianapolis Center
Sat 12:02:41 AM 39.2878 -82.7183 258° West 168 193 10,000  Level Indianapolis Center
Sat 12:03:41 AM 39.2792 -82.7792 260° West 169 194 10,000  Level Indianapolis Center
Sat 12:04:42 AM 39.2717 -82.8403 261° West 170 196 10,000  Level Indianapolis Center
Sat 12:05:42 AM 39.2661 -82.9019 263° West 171 197 10,000  Level Indianapolis Center
Sat 12:06:43 AM 39.2586 -82.9753 262° West 172 198 10,000  Level Indianapolis Center
Sat 12:07:44 AM 39.2525 -83.0372 263° West 172 198 10,000  Level Indianapolis Center
Sat 12:08:44 AM 39.2458 -83.1014 262° West 175 201 10,000  Level Indianapolis Center
Sat 12:09:45 AM 39.2397 -83.1642 263° West 177 204 10,000  Level Indianapolis Center
Sat 12:10:46 AM 39.2331 -83.2275 262° West 177 204 10,000  Level Indianapolis Center
Sat 12:11:46 AM 39.2256 -83.2908 261° West 177 204 10,000 -50 Level Indianapolis Center
Sat 12:12:47 AM 39.2186 -83.3525 262° West 177 204 9,900  Descending Indianapolis Center
Sat 12:13:47 AM 39.2128 -83.4142 263° West 176 203 10,000 50 Climbing Indianapolis Center
Sat 12:14:48 AM 39.2069 -83.4733 263° West 172 198 10,000  Level Indianapolis Center
Sat 12:15:49 AM 39.1994 -83.5319 261° West 171 197 10,000  Level Indianapolis Center
Sat 12:16:49 AM 39.1950 -83.5903 264° West 167 192 10,000  Level Indianapolis Center
Sat 12:17:50 AM 39.1872 -83.6486 260° West 166 191 10,000  Level Indianapolis Center
Sat 12:18:50 AM 39.1819 -83.7092 264° West 166 191 10,000 -50 Level Indianapolis Center
Sat 12:19:51 AM 39.1750 -83.7667 261° West 166 191 9,900  Descending Indianapolis Center
Sat 12:20:51 AM 39.1661 -83.8272 259° West 167 192 10,000 50 Climbing Indianapolis Center
Sat 12:21:52 AM 39.1481 -83.8828 247° West 167 192 10,000  Level Indianapolis Center
Sat 12:22:53 AM 39.1200 -83.9389 237° Southwest 181 208 10,000  Level Indianapolis Center
Sat 12:23:53 AM 39.0942 -83.9942 239° Southwest 182 209 10,000 -198 Level Indianapolis Center
Sat 12:24:54 AM 39.0672 -84.0519 239° Southwest 183 211 9,600 -496 Descending Indianapolis Center
Sat 12:25:54 AM 39.0431 -84.1122 243° Southwest 187 215 9,000 -545 Descending Indianapolis Center
Sat 12:26:55 AM 39.0186 -84.1731 243° Southwest 188 216 8,500 -545 Descending Indianapolis Center
Sat 12:27:55 AM 38.9942 -84.2361 244° Southwest 191 220 7,900 -595 Descending Indianapolis Center
Sat 12:28:56 AM 38.9714 -84.3019 246° West 196 226 7,300 -694 Descending Indianapolis Center
Sat 12:29:56 AM 38.9589 -84.3658 256° West 190 219 6,500 -893 Descending Indianapolis Center
Sat 12:30:57 AM 38.9494 -84.4275 259° West 180 207 5,500 -744 Descending Indianapolis Center
Sat 12:31:57 AM 38.9442 -84.4886 264° West 178 205 5,000 -595 Descending Indianapolis Center
Sat 12:32:58 AM 38.9386 -84.5503 263° West 166 191 4,300 -784 Descending Indianapolis Center
Sat 12:34:53 AM 38.9667 -84.6500 290° West 147 169 2,700 -891 Descending Cincinnati TRACON
Sat 12:35:53 AM 39.0000 -84.6500 360° North 120 138 1,700 -1,000 Descending Cincinnati TRACON
Sat 12:37:00 AM 39.0333 -84.6667 282° West  Level FlightAware Approximate

Login

Don't have an account? Register now (free) for customized features, flight alerts, and more!